GFSNGP_700_rhum_147.txt.gz
RH
20 20 23 24 28 52 78 36 48 32 31 25 30 34 36 37 17 12 10 12 15 17 17 16 14 11 10 9 9 10 10 12 14 11 11 10 10 8 7 8 9 9 9 8
31 43 45 31 19 25 39 53 65 65 30 27 31 25 18 20 16 22 23 23 23 23 22 20 20 20 21 15 12 12 12 13 15 14 12 12 12 12 11 9 8 9 10 11
64 56 45 42 27 34 32 25 29 52 17 43 35 24 22 20 24 30 36 40 41 43 42 37 30 25 22 22 19 16 14 14 15 16 16 16 15 14 14 14 11 9 8 10
78 66 56 34 23 20 23 18 22 17 19 34 33 29 28 28 27 28 33 32 34 40 45 44 30 30 28 27 27 23 24 24 23 21 19 21 19 20 20 19 19 17 13 10
78 59 41 35 18 17 18 17 19 17 29 33 34 32 36 55 43 51 56 42 43 52 54 58 57 54 35 28 29 27 25 29 30 31 26 19 20 24 22 20 21 24 24 20
80 81 56 36 35 47 40 32 27 28 47 59 64 74 63 61 60 60 65 58 59 63 65 69 71 69 67 61 52 29 29 28 27 27 28 20 20 26 26 23 23 23 22 30
95 84 73 48 51 40 41 28 25 37 54 62 70 76 68 65 65 75 75 78 85 84 77 73 71 66 64 65 65 62 42 29 29 28 26 20 18 19 26 30 28 26 26 27
99 91 84 46 44 52 53 60 64 72 78 81 82 73 66 62 62 63 66 71 72 70 74 70 57 51 54 54 60 63 58 55 33 32 30 24 24 21 19 22 27 29 30 30
61 57 55 55 59 65 72 74 70 72 77 79 77 69 65 66 70 68 70 67 67 69 55 51 49 48 48 44 51 58 58 58 47 36 34 31 23 20 19 19 19 21 25 29
70 68 69 72 62 76 80 90 92 80 78 73 72 73 69 64 62 64 65 65 58 62 61 52 50 49 49 50 50 55 61 62 58 44 36 35 29 22 20 20 21 21 22 22
78 59 47 67 88 95 92 81 66 50 50 59 71 68 59 50 45 46 46 45 48 49 51 53 51 53 62 60 57 58 62 66 59 42 38 36 27 21 19 18 17 18 19 23
52 50 57 60 56 60 57 50 39 33 32 32 38 41 42 44 53 58 57 55 52 52 51 50 49 44 47 64 68 68 71 70 62 44 50 67 30 23 21 19 18 17 17 17
66 40 41 46 40 35 41 38 42 36 37 44 37 42 58 66 71 66 66 72 67 57 44 38 40 45 47 56 75 88 87 96 78 52 59 71 62 43 19 16 15 13 13 15
43 50 48 39 43 71 72 66 60 60 66 70 73 78 84 86 86 77 76 75 69 66 67 62 47 43 51 59 73 84 92 85 63 40 39 62 84 89 85 82 64 49 49 32
37 48 49 58 70 49 41 52 62 72 80 84 89 94 94 84 74 72 74 72 60 62 69 65 70 63 69 79 86 96 95 88 81 80 64 40 64 91 87 82 74 74 75 72
40 60 62 66 46 47 57 66 72 76 85 88 82 71 68 68 69 73 78 74 72 73 73 83 88 81 85 92 91 93 95 78 44 67 82 94 97 94 82 87 80 75 72 67
55 70 82 63 64 81 86 95 92 89 85 83 93 77 63 71 84 92 83 77 84 89 90 90 100 98 93 83 93 94 95 96 96 95 97 97 96 97 92 86 89 74 36 30
70 82 77 52 64 89 98 96 84 85 92 92 97 92 85 88 91 90 87 82 83 94 95 98 99 97 94 96 97 97 98 96 96 96 95 94 94 92 92 94 95 93 59 47
91 91 97 99 98 96 92 90 83 74 72 72 78 87 96 80 80 86 83 95 98 88 94 95 96 96 96 96 95 98 97 98 97 97 96 94 94 95 96 93 89 67 46 42
94 86 80 84 81 68 62 51 42 43 62 72 78 88 94 92 78 72 55 78 98 96 96 96 97 98 100 97 93 90 91 88 90 92 93 96 89 82 87 95 90 63 59 57
68 61 56 51 51 48 44 45 40 34 31 34 46 67 90 85 87 87 88 70 65 86 86 83 71 79 100 100 91 77 76 80 86 84 86 90 88 85 83 84 87 89 96 87
72 67 61 55 50 43 37 37 36 34 34 28 23 23 32 68 78 76 84 71 48 69 83 76 50 51 59 69 61 57 57 56 63 78 91 94 90 89 86 84 91 87 87 91
50 42 42 39 36 28 27 28 28 32 31 31 28 23 21 19 25 46 51 64 57 47 38 27 18 17 20 20 20 22 22 22 27 42 60 82 93 90 89 87 90 93 89 86
32 28 29 29 28 26 23 23 24 27 29 28 29 29 22 18 17 15 14 15 25 32 31 44 40 21 12 9 9 9 10 11 13 15 25 59 84 89 89 90 93 91 92 90
31 36 40 38 38 35 30 29 29 27 35 33 36 41 21 13 11 10 10 9 9 9 9 9 10 8 8 8 8 8 8 9 10 15 19 49 88 96 88 86 93 96 94 94
49 52 54 48 38 32 30 29 32 30 30 44 50 42 18 18 18 15 14 13 13 12 11 11 10 10 10 8 8 8 8 8 12 15 22 54 77 98 100 97 94 94 95 94
47 46 33 31 33 30 30 37 40 37 35 41 46 38 20 24 19 16 14 15 14 14 17 28 32 34 27 19 17 15 15 17 22 26 32 40 69 70 91 99 97 92 94 95

GFSNGP_700_rhum_150.txt.gz
RH
15 15 18 18 17 21 46 23 55 27 25 27 31 31 32 29 31 31 18 17 20 20 21 27 27 24 21 19 19 19 14 11 12 13 14 14 13 13 13 12 11 9 8 8
26 21 34 42 26 28 31 32 54 45 24 30 40 55 48 28 25 21 25 24 26 30 31 31 36 40 38 32 26 22 20 20 15 14 14 14 15 18 16 17 18 15 14 10
67 54 54 40 23 21 21 25 25 37 23 39 48 48 33 28 28 27 26 25 28 28 27 25 28 34 44 45 28 23 22 23 25 21 18 15 16 15 17 21 22 22 22 20
84 65 79 42 34 30 23 22 29 24 27 45 34 37 44 54 34 29 35 38 32 27 22 26 30 44 58 60 58 55 42 31 29 28 24 26 28 28 25 22 20 20 22 24
78 72 50 49 31 31 54 45 34 26 36 47 47 43 42 61 71 72 66 61 56 52 53 59 60 72 71 66 67 67 68 66 57 32 27 28 28 30 31 26 26 27 28 24
82 81 79 48 40 44 46 34 32 35 44 60 68 66 42 53 50 46 56 57 60 66 68 68 68 77 74 70 71 69 64 61 67 64 56 31 30 30 28 26 23 25 30 33
80 91 76 60 60 54 48 40 36 49 62 64 65 62 56 54 60 64 61 58 59 63 66 65 68 66 65 63 58 48 47 51 54 62 63 60 40 33 31 27 26 27 25 23
95 94 84 60 45 52 57 59 63 65 65 59 64 56 55 55 56 55 52 55 56 55 57 60 64 64 67 64 53 50 50 48 50 58 63 62 59 48 38 35 28 22 20 20
63 56 60 61 65 67 68 72 77 74 74 76 75 66 49 42 41 47 55 52 45 41 40 43 44 48 49 55 53 52 54 54 58 62 63 62 58 50 42 41 36 24 21 23
70 58 64 64 64 69 66 72 81 75 78 75 69 61 45 35 32 32 34 34 36 40 40 44 48 48 49 49 51 52 50 55 64 62 66 66 66 59 48 43 32 25 23 22
65 47 59 67 70 66 53 78 87 88 80 52 41 33 28 24 29 35 40 54 64 64 64 64 64 58 48 43 42 44 46 48 69 83 76 92 87 55 41 32 36 26 23 22
43 39 59 65 71 50 34 32 22 15 16 21 41 52 59 62 68 75 79 80 77 74 73 70 68 66 66 61 45 44 51 65 81 82 87 96 96 68 64 89 89 55 32 19
45 54 39 39 49 41 35 23 18 45 54 52 52 63 73 81 87 90 92 84 78 71 66 67 62 55 62 67 66 57 58 74 90 97 96 96 95 95 94 95 94 82 81 80
50 57 62 61 49 33 27 40 66 53 54 66 72 82 88 92 89 70 62 57 57 65 76 61 53 64 67 71 77 75 79 86 94 97 96 94 78 59 66 89 93 96 96 96
49 53 62 43 42 49 62 62 53 61 67 68 74 78 83 81 79 64 49 45 56 74 73 69 77 80 80 83 87 89 90 92 93 96 93 93 95 95 95 95 96 96 96 96
48 47 44 49 48 76 72 57 61 66 69 65 64 67 73 68 72 76 63 60 76 76 79 79 81 84 88 94 97 90 81 90 94 96 99 98 96 95 95 95 94 92 95 96
47 58 67 70 70 85 85 72 76 82 84 69 61 61 70 71 71 65 73 81 91 85 88 88 88 88 94 100 97 96 97 95 95 95 97 96 97 97 94 94 93 92 92 92
59 72 76 74 77 78 85 87 83 76 71 68 66 64 64 63 63 65 82 88 81 87 97 94 95 90 96 96 96 97 96 97 96 96 96 95 95 96 95 91 90 88 86 87
85 88 89 83 75 72 70 65 62 56 49 43 38 36 46 58 73 72 75 85 90 70 76 95 97 95 97 97 97 99 95 91 94 90 87 84 87 83 80 77 80 82 80 80
83 90 87 81 74 65 56 52 48 45 43 41 40 37 33 28 27 46 77 81 87 92 83 82 91 96 95 96 93 96 94 78 81 85 90 80 77 84 86 84 81 80 79 80
89 85 82 76 64 61 62 56 52 48 45 40 36 34 40 33 29 26 22 47 70 80 94 68 82 92 98 76 41 29 31 39 40 42 47 55 63 61 67 84 84 84 84 84
83 77 61 48 36 32 31 32 32 34 32 29 32 33 32 37 33 28 26 22 20 35 48 67 79 75 71 84 55 30 16 12 12 12 12 13 15 21 40 65 89 90 88 89
43 43 44 43 30 29 28 27 25 26 25 23 22 24 25 28 32 35 26 23 18 17 16 17 29 43 66 61 38 34 29 15 9 9 10 10 11 14 23 38 72 90 90 88
28 31 31 32 32 30 33 34 36 36 36 33 33 33 30 28 30 40 45 32 18 13 11 11 10 11 10 10 14 16 17 12 9 7 8 9 9 12 16 41 78 96 98 95
30 31 31 29 26 26 36 45 46 42 35 31 30 25 23 30 37 42 48 25 19 18 14 16 15 16 18 18 16 16 15 13 12 10 11 14 12 11 16 39 68 98 98 97
29 29 30 33 34 26 28 48 43 35 34 33 32 35 34 32 38 52 43 28 31 25 20 20 19 18 17 20 30 42 43 43 38 31 27 32 27 22 28 47 69 92 99 100
47 48 48 48 46 32 30 37 39 39 43 39 32 30 36 38 55 73 39 31 28 22 20 19 20 20 19 18 18 42 61 58 60 66 72 67 49 38 45 49 77 90 70 95

GFSNGP_700_rhum_153.txt.gz
RH
17 18 22 20 19 21 30 24 42 23 24 13 19 32 34 35 32 27 22 23 22 21 27 31 30 29 26 25 24 26 34 29 25 22 22 18 14 14 14 13 12 11 12 12
15 18 28 28 21 23 29 33 38 30 22 28 36 44 48 49 36 22 27 28 28 27 27 27 25 21 21 21 23 28 32 43 34 22 23 24 22 18 16 15 16 16 15 15
42 44 47 50 36 31 31 28 28 32 22 29 34 44 54 52 46 39 32 34 38 42 41 40 35 30 27 38 46 43 43 49 54 57 45 34 26 24 24 28 30 27 22 20
68 66 76 41 31 34 39 32 36 39 28 37 43 44 55 64 56 52 51 48 46 44 45 51 53 57 58 59 61 65 68 66 70 70 65 64 62 42 26 28 29 30 31 28
81 78 55 43 50 30 49 50 42 36 34 49 56 49 46 49 45 56 58 53 51 56 56 54 54 54 54 53 57 61 66 70 70 70 67 63 64 66 58 32 29 30 29 29
87 80 84 58 42 50 61 42 46 52 51 56 54 40 36 47 58 57 58 51 49 48 46 45 46 51 52 54 56 61 65 63 60 53 49 52 58 61 66 63 45 34 32 29
92 87 66 59 64 70 59 50 53 56 53 54 57 58 59 56 35 46 44 42 40 41 45 47 48 44 44 45 46 53 54 56 63 53 52 55 53 57 64 65 62 53 40 37
97 99 80 57 62 60 64 62 60 60 61 61 58 50 42 36 49 43 43 39 34 33 32 34 34 33 34 37 41 41 45 48 53 52 52 57 60 57 62 66 62 57 50 44
60 57 60 66 71 70 71 69 70 70 69 66 54 41 49 49 41 25 27 24 20 22 26 28 37 51 56 58 57 54 49 47 48 50 50 49 58 70 72 83 67 65 61 52
70 61 62 67 73 79 80 80 82 74 57 59 72 71 60 29 16 18 23 30 37 44 49 53 61 62 64 65 66 64 62 56 44 43 47 51 61 68 80 89 95 95 54 40
68 65 62 64 70 66 64 61 58 55 49 33 27 18 12 24 38 46 55 61 68 72 74 72 72 70 67 64 59 56 57 64 61 51 56 70 78 81 83 89 93 93 93 64
47 45 57 55 64 65 49 39 35 29 24 20 16 30 40 44 52 64 71 75 74 70 62 56 49 50 56 51 46 51 59 66 68 66 65 76 88 95 97 94 99 96 93 95
35 30 25 25 33 35 34 44 48 33 25 30 64 61 58 58 66 74 82 81 70 52 43 40 43 68 68 56 47 53 64 70 74 76 78 81 86 90 93 66 63 72 97 96
62 29 20 30 51 41 41 35 28 34 50 63 63 67 66 58 53 55 62 65 69 66 58 45 47 51 56 61 60 61 68 76 85 86 86 88 90 89 89 93 91 92 95 92
42 43 47 53 50 55 56 49 48 73 74 74 77 73 69 62 64 68 66 66 65 56 58 61 64 61 60 68 72 77 84 92 90 86 88 94 94 95 96 96 98 95 95 95
57 74 93 95 65 66 60 54 52 80 84 84 85 86 74 60 60 63 58 51 44 46 55 61 65 78 72 84 85 88 99 98 95 95 96 96 95 96 98 96 96 96 96 95
68 75 66 66 79 84 78 80 88 88 85 83 74 62 58 52 49 49 51 57 61 67 80 86 76 73 83 88 90 95 100 98 96 95 95 96 97 96 96 94 94 90 88 87
72 73 68 85 96 91 86 91 86 74 62 54 52 49 46 44 40 36 33 38 56 66 84 91 94 86 80 86 91 95 97 97 97 96 96 97 85 85 93 92 88 80 78 78
74 88 100 100 97 94 83 77 74 72 66 59 48 41 38 38 38 39 36 33 30 26 41 79 81 89 94 94 95 96 96 96 98 98 90 83 81 78 65 68 76 86 89 82
99 100 100 100 98 97 92 85 81 80 67 39 33 29 25 34 39 38 37 36 24 32 28 26 48 51 84 75 91 95 91 50 36 26 23 29 29 27 34 29 34 48 82 93
98 99 95 90 67 50 40 44 37 41 36 40 27 28 29 27 28 30 34 34 33 36 38 30 22 20 24 26 37 93 93 76 56 38 25 15 9 10 11 13 15 22 38 72
52 41 39 36 30 23 24 26 27 28 28 28 31 31 32 30 27 24 24 26 25 28 30 34 32 20 17 16 18 19 84 95 88 65 45 15 10 8 7 7 8 9 18 44
34 31 28 27 27 27 25 25 26 28 27 28 44 49 47 40 34 31 28 26 26 26 28 29 37 24 15 14 14 14 13 15 32 57 45 36 37 16 8 7 7 11 20 38
32 30 29 29 28 29 29 27 29 31 30 27 41 47 39 38 33 29 27 26 27 35 36 44 35 21 25 28 28 24 20 18 17 15 12 11 13 26 18 10 10 12 17 36
29 29 28 31 40 42 41 41 42 38 39 28 32 43 36 34 34 28 31 35 37 39 54 38 35 38 33 23 19 17 16 15 18 18 20 21 20 16 12 15 16 16 16 52
34 41 48 44 40 42 46 54 55 47 45 32 30 37 39 44 44 39 33 34 44 59 58 44 40 29 24 21 21 20 19 17 20 39 48 48 47 42 41 42 40 30 32 75
50 53 53 52 60 78 80 70 62 44 38 37 39 46 65 61 50 44 40 54 72 76 58 54 39 29 24 22 22 22 24 23 19 16 16 44 60 60 66 77 81 57 53 75

GFSNGP_700_rhum_156.txt.gz
RH
12 13 17 15 14 19 31 25 40 20 18 12 17 30 30 29 37 40 35 31 28 29 31 30 28 28 26 24 20 17 15 16 18 21 35 44 32 22 21 22 18 14 13 14
18 17 20 19 17 18 20 20 22 26 18 22 31 37 51 61 54 47 33 31 33 32 30 32 31 25 24 27 30 34 37 30 38 50 38 38 54 57 43 28 26 24 22 21
31 35 47 53 50 48 46 40 34 34 19 32 38 43 54 60 57 50 46 44 45 45 40 36 37 38 36 37 43 47 48 50 56 56 60 65 64 64 66 65 52 29 26 27
55 56 78 54 51 34 35 42 41 32 32 32 39 48 52 55 56 54 54 52 52 52 48 42 41 42 40 42 44 44 45 47 51 52 54 61 65 67 67 66 66 66 49 30
75 86 61 48 50 45 43 47 46 50 45 42 40 47 53 55 55 50 58 56 43 35 36 42 39 38 36 35 39 42 46 48 53 58 58 58 61 60 55 50 54 61 65 64
89 86 83 60 40 36 41 55 52 43 46 43 47 54 50 43 41 50 55 40 34 38 33 32 32 31 33 38 42 41 40 41 42 44 50 51 57 61 54 54 55 52 58 66
96 90 71 55 60 66 68 58 54 50 53 54 49 46 47 51 53 48 30 34 30 18 16 18 18 16 18 22 25 26 30 32 38 42 42 48 50 54 53 54 60 62 63 65
100 97 90 54 63 67 64 65 61 55 55 55 60 64 63 58 53 32 28 19 10 10 14 20 24 25 27 35 42 50 55 56 54 51 51 48 46 49 51 51 53 62 69 75
54 57 56 69 74 73 70 71 70 70 72 71 69 68 66 61 42 20 11 7 14 26 36 48 53 56 54 54 56 56 58 59 57 55 55 57 56 47 47 54 59 65 72 78
64 60 69 73 89 85 82 82 79 79 76 69 65 55 52 46 22 15 12 21 31 37 41 46 52 57 57 54 50 48 47 46 44 46 51 60 63 58 55 66 72 76 79 80
83 81 80 83 85 72 79 81 76 71 71 68 59 50 28 19 14 20 39 45 50 58 62 62 54 45 40 37 38 52 55 45 39 42 51 58 63 65 65 70 74 76 83 81
71 80 88 78 61 35 37 38 40 44 39 33 30 24 18 15 41 53 52 55 56 59 57 52 48 45 40 35 29 32 46 45 44 48 51 52 57 68 78 76 78 77 79 79
92 94 92 83 69 52 36 23 31 38 43 34 28 28 40 53 60 58 56 48 46 46 46 46 41 31 24 31 38 38 34 40 48 54 61 65 74 74 75 85 88 87 84 86
89 83 80 68 61 52 38 40 54 53 39 40 47 74 80 80 81 78 65 61 60 60 57 49 34 31 34 41 44 53 58 71 73 78 82 89 89 87 85 85 81 87 99 94
85 96 95 83 68 55 64 87 93 67 62 52 60 80 87 85 84 83 72 67 64 59 56 56 50 51 58 57 58 62 69 84 88 94 94 95 94 96 95 97 95 93 94 96
98 95 98 93 94 98 96 76 83 82 69 72 90 98 98 91 72 56 47 49 49 47 52 68 64 63 71 77 77 73 76 86 91 95 98 96 96 97 98 97 97 95 95 89
88 100 100 98 98 94 98 100 94 83 75 84 90 76 59 52 48 44 42 41 38 35 32 30 32 32 58 74 81 80 82 83 91 92 96 97 97 97 92 77 80 90 93 88
95 100 100 100 95 94 94 96 93 92 86 73 64 58 59 56 45 38 36 38 36 37 36 36 34 29 29 36 66 70 74 80 86 94 93 95 96 90 79 66 56 44 47 70
86 98 98 94 97 97 97 94 84 85 82 73 71 67 67 68 64 54 39 24 22 24 26 27 27 21 21 29 26 37 49 69 79 96 96 95 83 40 29 19 18 16 16 19
98 98 97 95 89 82 82 70 68 58 38 27 25 25 25 22 20 20 31 50 44 22 25 31 33 31 31 32 31 28 20 21 27 39 93 43 29 23 17 12 9 8 8 8
58 61 61 48 63 38 34 32 27 24 23 26 29 29 29 27 25 25 30 30 31 26 22 22 24 26 28 29 32 33 27 18 17 17 32 89 92 60 41 47 38 16 7 7
16 16 19 21 24 24 24 25 25 27 28 27 26 27 28 26 24 30 40 44 35 34 31 28 26 25 25 26 29 31 32 22 14 15 16 16 32 59 81 72 77 72 62 14
18 21 21 22 26 27 29 29 27 27 28 30 31 31 30 29 27 31 43 39 39 34 33 28 26 26 35 48 43 35 26 21 21 22 21 19 15 15 13 11 12 15 60 70
19 25 29 28 28 30 30 34 39 38 33 28 25 28 39 44 40 32 43 40 36 34 32 30 31 34 39 53 50 48 44 33 27 26 25 26 28 26 21 15 14 14 12 12
23 30 32 34 39 48 53 44 40 36 42 47 45 39 50 47 41 33 40 40 43 40 33 32 34 39 53 54 60 41 26 22 20 18 17 17 20 24 24 21 20 24 25 20
41 44 42 49 59 70 72 73 70 60 76 69 55 51 44 41 39 56 64 62 52 42 35 32 42 63 70 57 44 32 27 25 23 23 24 25 21 18 18 27 32 45 49 54
64 70 69 60 56 67 68 76 79 65 79 88 62 40 42 51 79 82 72 64 66 67 56 54 72 77 68 58 46 33 30 29 27 25 25 30 33 32 23 17 17 43 62 65

GFSNGP_700_rhum_159.txt.gz
RH
18 18 19 15 17 28 34 28 44 20 18 13 22 27 35 33 31 30 39 39 32 34 32 34 35 36 39 38 34 32 35 41 43 45 47 46 49 52 54 46 44 53 50 34
18 16 17 16 13 13 12 14 18 17 12 14 20 22 29 34 37 45 51 44 35 38 37 36 36 34 30 27 27 26 25 27 29 32 40 45 47 51 53 62 68 65 63 66
37 37 45 54 45 45 42 41 42 36 37 39 38 38 36 43 47 54 59 59 58 56 52 47 47 40 36 36 38 36 33 34 35 35 37 39 44 52 57 61 64 68 68 66
53 54 78 49 55 56 48 40 33 38 34 32 36 40 44 51 49 56 59 58 55 53 51 50 33 21 19 25 30 30 27 26 28 30 32 36 42 47 55 59 62 62 58 52
66 80 55 36 38 43 47 50 44 43 42 40 47 48 45 52 56 59 57 52 49 46 46 43 19 19 13 13 16 17 18 21 26 31 33 36 38 40 43 50 52 60 60 54
77 86 85 48 53 43 44 46 38 43 45 46 45 49 58 61 58 58 52 47 49 48 36 12 9 7 5 6 7 8 12 18 23 26 30 32 37 40 41 42 47 52 55 54
96 87 81 52 65 65 72 56 49 47 53 53 53 55 54 57 54 52 54 54 47 36 15 6 6 8 15 21 23 24 26 30 34 37 36 40 41 45 50 52 49 46 48 52
100 96 88 58 67 76 69 67 66 61 57 58 62 64 64 62 65 60 52 41 30 16 9 13 22 27 34 42 44 47 47 47 46 47 46 46 46 48 51 54 56 56 50 50
60 55 59 67 69 76 73 71 73 78 78 75 70 68 66 62 53 39 35 32 13 11 16 28 41 51 52 48 43 42 41 39 39 42 43 39 40 45 50 55 61 62 60 64
68 60 61 68 78 80 81 86 85 79 75 67 73 77 61 46 48 42 22 16 15 26 42 51 54 55 50 46 42 38 34 30 30 45 50 46 40 38 41 50 57 63 66 65
80 72 74 78 78 93 86 90 91 88 73 58 63 46 35 30 26 24 21 22 39 51 53 52 48 46 42 38 36 27 25 29 31 29 25 26 29 31 38 52 51 52 60 62
73 70 85 89 82 88 92 88 92 90 56 47 45 40 39 33 27 27 44 61 62 58 51 45 44 48 51 45 40 29 18 18 24 29 31 33 36 38 62 58 58 62 66 66
95 93 92 92 82 90 98 100 98 97 90 71 71 77 50 51 63 79 85 84 77 65 55 51 49 50 50 46 31 28 27 31 34 42 46 49 54 54 48 64 78 81 83 84
82 99 100 97 99 98 90 77 70 78 72 70 81 82 86 77 72 81 86 85 78 70 68 61 57 53 48 42 39 38 41 48 49 52 57 71 75 72 72 73 70 79 94 96
82 100 99 97 97 97 94 95 95 90 97 96 90 91 82 89 97 100 98 91 78 65 59 57 50 46 47 51 46 41 43 47 56 59 64 77 86 87 94 90 92 92 95 100
99 95 88 98 95 89 96 100 98 93 94 99 99 98 98 93 89 84 69 50 46 44 42 41 39 36 33 32 31 30 29 34 49 63 72 77 89 96 98 93 84 82 79 81
72 100 91 97 100 100 99 96 98 99 98 97 95 93 90 87 81 71 61 52 46 42 37 36 38 36 37 35 31 24 25 26 25 28 42 69 82 95 96 94 88 79 55 48
77 98 99 98 98 95 96 96 98 94 90 88 91 90 87 80 72 67 60 47 52 58 58 54 52 39 30 29 27 25 22 23 29 28 25 24 35 58 91 96 92 70 34 18
96 98 98 98 90 88 92 84 77 77 76 69 65 62 55 49 48 50 48 44 38 35 29 20 15 20 44 49 43 36 25 24 31 34 34 26 20 24 55 91 79 22 14 11
84 76 61 50 42 27 23 20 19 22 26 38 29 24 25 25 23 21 20 19 18 18 16 16 18 19 34 37 36 29 25 23 26 28 33 32 23 18 30 83 70 44 34 32
42 35 28 20 15 13 16 21 22 25 26 28 31 30 28 26 25 25 25 25 20 22 21 23 24 26 29 29 27 25 24 23 25 26 29 32 28 16 18 30 28 77 90 67
35 32 26 19 16 18 17 19 20 21 23 25 27 28 32 31 32 31 28 28 31 29 23 27 38 39 37 35 32 29 27 31 48 44 34 26 19 17 19 19 28 34 20 24
42 38 34 32 29 21 18 20 24 30 34 37 42 38 37 40 43 48 43 32 39 38 32 31 39 38 37 35 31 31 33 46 53 56 68 56 50 48 46 43 36 34 30 24
46 44 36 25 20 19 24 32 39 43 50 50 42 40 56 61 55 45 54 45 44 48 35 33 38 42 42 36 33 34 42 59 57 65 59 34 31 32 33 32 32 29 25 24
50 31 24 25 30 51 59 59 61 54 57 57 53 50 55 65 74 45 46 48 47 43 42 56 62 58 53 45 39 47 65 67 60 43 30 25 22 20 20 21 19 17 16 17
29 29 31 40 66 68 62 57 55 56 68 69 63 71 73 66 71 61 43 43 56 82 80 70 66 66 64 56 60 79 80 66 45 35 31 28 26 25 28 33 36 33 25 19
33 34 38 55 55 56 57 58 53 53 69 86 77 69 79 71 75 80 82 84 94 96 89 70 68 90 78 66 79 87 88 70 50 38 37 36 33 32 33 38 42 41 37 27